Concord, CA

8:15 PM PST on November 22, 2017 (GMT -0800)
Buchanan

Weather History for KCCR - December, 2013

Change the Weather History Date:

Sunday, December 1, 2013

  Actual Average Record
Temperature  
Mean Temperature 54 °F 49 °F  
Max Temperature 68 °F 58 °F 68 °F (2013)
Min Temperature 39 °F 41 °F 33 °F (2004)
Degree Days  
Heating Degree Days 11    
Month to date heating degree days 11  
Since 1 July heating degree days 439  
Cooling Degree Days 0    
Month to date cooling degree days 0  
Year to date cooling degree days 826  
Growing Degree Days 2 (Base 50)    
Moisture  
Dew Point 41 °F    
Average Humidity 66    
Maximum Humidity 92    
Minimum Humidity 40    
Precipitation  
Precipitation 0.00 in - 0.67 in (2005)
Month to date precipitation 0.00  
Year to date precipitation 4.08  
Since 1 July precipitation 2.02  
Sea Level Pressure  
Sea Level Pressure 30.23 in    
Wind  
Wind Speed 2 mph (SE)    
Max Wind Speed 9 mph    
Max Gust Speed 22 mph    
Visibility 10 miles    
Events      
T = Trace of Precipitation, MM = Missing Value Source: NWS Daily Summary

Daily Weather History Graph

Daily Weather History Graph

Search for Another Location

Airport or City:

Trip Planner

Search our weather history database for the weather conditions in past years. The results will help you decide how hot, cold, wet, or windy it might be!

Date:

Astronomy

Dec. 01, 2013 Rise Set
Actual Time 7:05 AM PST 4:48 PM PST
Civil Twilight 6:36 AM PST 5:18 PM PST
Nautical Twilight 6:04 AM PST 5:50 PM PST
Astronomical Twilight 5:32 AM PST 6:22 PM PST
Moon 5:31 AM PST (12/1) 4:02 PM PST (12/1)
Length of Visible Light 10h 41m
Length of Day
9h 43m
Waning Crescent, 2% of the Moon is Illuminated
Dec 1
Waning Crescent
Dec 2
New
Dec 9
First Quarter
Dec 17
Full
Dec 25
Last Quarter

Hourly Weather History & Observations

Time (PST) Temp. Windchill Dew Point Humidity Pressure Visibility Wind Dir Wind Speed Gust Speed Precip Events Conditions
12:53 AM 44.1 °F 41.5 °F 39.9 °F 85% 30.23 in 10.0 mi SSE 4.6 mph - N/A   Clear
1:53 AM 43.0 °F 41.3 °F 39.9 °F 89% 30.23 in 9.0 mi South 3.5 mph - N/A   Clear
2:53 AM 44.1 °F 42.5 °F 41.0 °F 89% 30.23 in 10.0 mi SE 3.5 mph - N/A   Clear
3:53 AM 43.0 °F - 39.9 °F 89% 30.23 in 10.0 mi Calm Calm - N/A   Clear
4:53 AM 42.1 °F 40.2 °F 39.0 °F 89% 30.26 in 9.0 mi SE 3.5 mph - N/A   Clear
5:53 AM 39.9 °F - 37.9 °F 93% 30.26 in 8.0 mi Calm Calm - N/A   Clear
6:53 AM 39.0 °F - 37.9 °F 96% 30.28 in 8.0 mi Calm Calm - N/A   Clear
7:53 AM 42.1 °F - 39.9 °F 92% 30.29 in 8.0 mi Calm Calm - N/A   Clear
8:53 AM 48.0 °F - 41.0 °F 77% 30.30 in 10.0 mi Calm Calm - N/A   Clear
9:53 AM 54.0 °F - 42.1 °F 64% 30.31 in 10.0 mi Calm Calm - N/A   Clear
10:53 AM 59.0 °F - 42.1 °F 53% 30.30 in 10.0 mi Calm Calm - N/A   Clear
11:53 AM 62.1 °F - 44.1 °F 52% 30.28 in 10.0 mi North 8.1 mph - N/A   Clear
12:53 PM 66.0 °F - 43.0 °F 43% 30.25 in 10.0 mi North 5.8 mph - N/A   Clear
1:53 PM 66.0 °F - 41.0 °F 40% 30.23 in 10.0 mi Calm Calm - N/A   Clear
2:53 PM 66.9 °F - 41.0 °F 39% 30.20 in 10.0 mi Calm Calm - N/A   Clear
3:53 PM 66.0 °F - 42.1 °F 42% 30.20 in 10.0 mi North 4.6 mph - N/A   Clear
4:53 PM 62.1 °F - 41.0 °F 46% 30.18 in 10.0 mi Calm Calm - N/A   Clear
5:53 PM 55.9 °F - 43.0 °F 62% 30.18 in 10.0 mi Calm Calm - N/A   Clear
6:53 PM 53.1 °F - 43.0 °F 69% 30.19 in 10.0 mi Calm Calm - N/A   Clear
7:53 PM 50.0 °F - 43.0 °F 77% 30.19 in 10.0 mi SE 3.5 mph - N/A   Clear
8:53 PM 48.9 °F - 43.0 °F 80% 30.19 in 10.0 mi Calm Calm - N/A   Clear
9:53 PM 50.0 °F - 42.1 °F 74% 30.20 in 10.0 mi SSE 3.5 mph - N/A   Clear
10:53 PM 50.0 °F - 41.0 °F 71% 30.21 in 10.0 mi South 4.6 mph - N/A   Clear
11:53 PM 46.0 °F - 41.0 °F 83% 30.20 in 10.0 mi Calm Calm - N/A   Clear